Vertical_Velocity
-1 -1 -1 -1 -1 -1 -1 -1 -1 -1 -1 -1 -1 -1 -1 -1 -1 -1 -1 -1 -1 -1 -2 -2 -2 -2 -2 -2 -1 -1 -1 -1 -1 -1 -1 -1 -1 -1 -1 -1 -1 -0 -0 -0 -0 -0 0 -1 -2 -1 -0 -0 -0 -0 -0 -0 -1 -1 -1 -1 -2 -2 -2 -1 -1 -1 -1 -1 -1 -1 -1 -1 -1 -1 -1 -1 -1 -1 -1 -1 -1 -1 -1 -1 -2 -2 -2 -2 -2 -2 -2 -2 -2 -1 -2 -1 -1 -1 -1 -1 -1 -1 -1
-1 -1 -1 -1 -1 -1 -1 -1 -1 -1 -1 -1 -1 -1 -1 -1 -1 -1 -1 -1 -1 -1 -2 -2 -2 -2 -2 -2 -2 -2 -1 -1 -1 -2 -2 -1 -1 -1 -1 -1 -1 -1 -0 -0 -0 -0 0 -1 -1 -1 -1 -0 -0 -0 -0 -0 -1 -1 -1 -1 -2 -2 -1 -1 -1 -1 -1 -1 -1 -1 -1 -1 -1 -0 -1 -1 -1 -1 -1 -1 -1 -1 -1 -1 -1 -1 -2 -2 -2 -2 -2 -2 -2 -2 -2 -1 -1 -1 -1 -1 -1 -1 -1
-1 -1 -1 -1 -1 -1 -1 -1 -1 -1 -1 -1 -1 -1 -1 -1 -1 -1 -1 -1 -1 -1 -1 -1 -1 -1 -2 -2 -2 -2 -2 -2 -2 -2 -2 -2 -1 -1 -1 -1 -1 -1 -1 -0 -0 -0 -0 -1 -1 -1 -1 -1 -1 -1 -0 -0 -1 -1 -1 -1 -1 -1 -1 -1 -2 -2 -1 -1 -1 -1 -1 -1 -1 -1 -0 -0 -1 -1 -1 -1 -1 -1 -1 -1 -1 -1 -1 -1 -1 -2 -2 -2 -2 -2 -1 -1 -1 -1 -1 -1 -1 -1 -1
-1 -1 -1 -1 -1 -1 -1 -1 -1 -1 -1 -1 -1 -1 -1 -1 -1 -1 -1 -1 -1 -1 -1 -1 -1 -1 -1 -2 -2 -2 -2 -2 -2 -2 -2 -2 -2 -2 -1 -1 -1 -1 -1 -1 -1 -0 -0 -1 -1 -1 -1 -1 -1 -1 -1 -1 -0 -0 -1 -1 -1 -0 -1 -1 -1 -2 -1 -1 -1 -1 -1 -1 -1 -1 -0 -0 -0 -1 -1 -1 -1 -1 -1 -0 -1 -1 -1 -1 -1 -1 -1 -2 -1 -1 -1 -1 -1 -1 -1 -1 -1 -1 -1
-1 -1 -1 -1 -1 -1 -1 -1 -1 -0 -0 -1 -1 -1 -1 -1 -1 -1 -1 -1 -1 -1 -1 -1 -1 -1 -1 -1 -1 -2 -2 -2 -2 -2 -2 -2 -2 -2 -2 -2 -1 -1 -1 -1 -1 -1 -0 -1 -0 -0 -0 -0 -0 -1 -1 -1 -0 -0 -0 -1 -0 -0 -0 -1 -1 -1 -1 -1 -1 -1 -1 -1 -1 -1 -0 -0 -1 -1 -1 -1 -1 -1 -0 -0 -0 -0 -1 -1 -1 -1 -1 -1 -1 -1 -1 -1 -1 -1 -1 -1 -1 -1 -1
-1 -1 -1 -1 -1 -1 -1 -1 -1 -0 -0 -0 -1 -1 -1 -1 -1 -1 -1 -1 -1 -1 -1 -1 -1 -1 -1 -1 -1 -1 -2 -2 -2 -2 -2 -2 -2 -2 -2 -2 -2 -2 -1 -1 -1 -1 -1 -1 -1 -1 -0 -0 -0 -0 -0 -0 -0 -0 -0 -1 -0 0 0 -1 -1 -1 -1 -1 -1 -1 -1 -1 -0 -0 -0 -0 -0 -1 -1 -1 -1 -1 -1 -0 -0 -0 -0 -0 -1 -1 -1 -1 -1 -1 -1 -1 -1 -1 -1 -2 -2 -1 -1
-1 -1 -1 -1 -1 -1 -1 -1 -1 -0 0 -0 -0 -1 -1 -1 -1 -1 -1 -1 -1 -1 -1 -1 -0 -0 -0 -0 -1 -1 -1 -2 -2 -2 -2 -2 -2 -2 -2 -2 -2 -2 -2 -2 -2 -1 -1 -1 -1 -1 -1 -1 -0 -0 -0 -0 -0 -0 -0 -1 -0 0 0 -0 -1 -1 -1 -1 -1 -1 -1 -0 -0 -0 -0 0 0 0 -0 -0 -0 -0 -1 -0 -0 0 0 0 0 -0 -0 -1 -1 -1 -1 -1 -1 -1 -1 -2 -2 -2 -2
-1 -1 -1 -1 -1 -1 -1 -1 -1 -1 -0 -0 -0 -1 -1 -1 -1 -1 -1 -1 -1 -1 -1 -1 -1 -1 -1 -0 -0 -0 -1 -1 -1 -2 -2 -2 -2 -2 -2 -2 -2 -2 -2 -2 -2 -2 -2 -1 -1 -1 -1 -1 -1 -1 -0 -0 -0 -0 -0 -0 -0 0 0 -0 -0 -1 -1 -1 -1 -1 -1 -1 -0 -0 -0 -0 0 0 0 0 -0 -0 -0 -0 -0 -0 0 0 0 0 0 -0 -0 -0 -1 -1 -1 -1 -1 -1 -1 -1 -2
-1 -1 -1 -1 -1 -1 -1 -1 -1 -1 -1 -0 -0 -1 -1 -1 -1 -1 -1 -1 -1 -1 -1 -1 -1 -1 -1 -1 -0 -0 -0 -0 -1 -1 -1 -2 -1 -1 -1 -2 -2 -2 -2 -2 -2 -2 -2 -1 -1 -1 -1 -1 -1 -1 -1 -1 -1 -1 -1 -1 -0 -0 -0 0 -0 -0 -1 -1 -1 -1 -0 -0 -1 -0 -0 -0 -0 0 0 0 0 0 -0 -0 -0 -0 -0 0 1 1 0 0 0 -0 -0 -0 -0 -1 -1 -1 -1 -1 -1
-1 -1 -0 -1 -1 -1 -1 -1 -1 -1 -1 -1 -1 -1 -0 -0 -0 -1 -1 -1 -1 -1 -1 -1 -1 -1 -1 -1 -1 -0 -0 -0 -0 -1 -1 -1 -1 -1 -1 -1 -1 -1 -2 -2 -2 -2 -2 -2 -1 -1 -1 -1 -1 -1 -1 -1 -1 -1 -1 -1 -1 -1 -1 -0 -1 -1 -1 -1 -1 -1 -1 -1 -1 -1 -1 -1 -1 -1 -0 0 0 0 0 -0 -0 -0 -1 -0 0 0 1 0 0 0 0 0 -0 -0 -0 -0 -0 -1 -1
-1 -1 -0 -1 -0 -0 -0 -1 -1 -1 -1 -1 -1 -1 -0 -0 -0 -0 -0 -0 -0 -0 -0 -0 -1 -1 -1 -1 -1 -1 -0 -0 -0 -0 -0 -1 -1 -1 -1 -1 -1 -1 -1 -1 -1 -1 -1 -1 -1 -1 -1 -1 -1 -1 -1 -1 -1 -1 -1 -1 -1 -1 -1 -1 -1 -1 -1 -1 -1 -1 -1 -1 -1 -1 -1 -1 -1 -1 -1 -1 -0 0 0 -0 -0 -1 -1 -1 -1 -0 0 0 0 0 0 0 0 0 -0 -0 -0 -0 -1
-1 -1 -0 -1 -1 -0 0 -1 -1 -1 -1 -1 -1 -1 -1 -0 -0 0 0 -0 -0 -0 -0 -0 -0 -1 -1 -1 -1 -1 -1 -0 -0 -0 -0 -0 -1 -1 -1 -1 -1 -0 -1 -1 -1 -1 -1 -1 -1 -1 -1 -1 -1 -1 -1 -1 -1 -1 -1 -1 -1 -1 -1 -1 -1 -1 -1 -1 -1 -1 -1 -1 -1 -1 -1 -1 -1 -1 -1 -1 -1 -1 -0 -0 -0 -1 -1 -1 -1 -1 -1 -0 0 0 0 -0 -0 0 0 0 -0 -0 -0
-2 -1 -1 -1 -1 -0 0 -0 -1 -1 -1 -1 -1 -1 -1 -1 -0 -0 0 0 0 0 -0 -0 -0 -1 -1 -1 -1 -1 -1 -1 -1 -0 -0 -0 -0 -0 -1 -1 -1 -0 -0 -0 -0 -0 -1 -1 -1 -1 -1 -1 -1 -1 -1 -1 -1 -1 -1 -1 -1 -1 -1 -1 -1 -1 -1 -1 -1 -1 -1 -1 -1 -1 -1 -1 -1 -1 -1 -2 -2 -1 -1 -1 -0 -0 -1 -1 -1 -1 -1 -1 -1 -0 -0 -0 -0 -0 -0 -0 -0 -0 -0
-2 -1 -1 -1 -1 -1 0 -0 -0 -1 -1 -1 -1 -1 -1 -1 -1 -1 -0 -0 0 0 0 0 -0 -0 -1 -1 -1 -2 -2 -1 -1 -1 -1 -0 -0 -0 -0 -1 -1 -1 -0 -0 -0 -0 -0 -0 -1 -1 -1 -1 -1 -1 -1 -1 -1 -0 -0 -0 -0 -1 -1 -1 -1 -1 -1 -1 -1 -1 -1 -1 -1 -1 -1 -1 -1 -1 -1 -1 -1 -2 -1 -1 -1 -1 -1 -1 -1 -1 -1 -1 -1 -1 -1 -0 -0 -0 -0 -0 -0 -0 -0
-1 -1 -1 -1 -1 -0 0 0 0 -0 -1 -1 -1 -1 -1 -1 -1 -1 -1 -1 -0 -0 0 0 -0 -0 -0 -1 -1 -2 -2 -2 -1 -1 -1 -1 -1 -0 -0 -0 -1 -1 -1 -1 -0 -1 -1 -1 -1 -0 -0 -0 -0 -0 -0 -0 -0 -0 -0 -0 -0 -0 -0 -0 -0 -0 -1 -1 -1 -1 -1 -1 -1 -1 -1 -1 -1 -1 -1 -1 -1 -1 -1 -1 -1 -1 -1 -1 -1 -1 -1 -1 -1 -1 -1 -1 -1 -1 -1 -1 -1 -0 -0
-2 -2 -2 -1 -1 -0 0 0 0 0 -0 -1 -1 -1 -1 -2 -2 -2 -1 -1 -1 -1 -0 -0 -0 -0 -0 -1 -1 -1 -2 -2 -1 -1 -1 -1 -1 -1 -0 -0 -0 -0 -1 -0 -1 -1 -1 -1 -1 -1 -0 -1 -1 -1 -0 -0 -0 -0 -0 -0 -0 -0 -0 -0 -0 -0 -0 -1 -1 -1 -1 -1 -1 -1 -1 -1 -1 -1 -1 -1 -1 -1 -1 -1 -1 -1 -1 -1 -1 -1 -1 -1 -1 -1 -1 -1 -1 -1 -1 -1 -1 -1 -1
-3 -3 -3 -2 -1 -0 -0 0 0 0 0 -0 -1 -1 -1 -1 -2 -2 -2 -2 -2 -1 -1 -1 -1 -1 -1 -1 -1 -1 -2 -2 -2 -2 -1 -1 -1 -1 -1 -1 -0 -0 -0 -0 -1 -1 -1 -1 -1 -1 -1 -1 -1 -1 -1 -0 -0 -0 -0 -0 -0 -0 -0 -0 -0 -0 -0 -0 -1 -1 -1 -1 -1 -1 -1 -1 -1 -1 -1 -1 -1 -1 -1 -1 -1 -1 -1 -1 -1 -1 -1 -1 -1 -1 -1 -1 -1 -1 -1 -1 -1 -1 -1
-3 -3 -4 -2 -2 -1 -1 -0 0 0 0 0 -0 -1 -1 -1 -1 -1 -1 -2 -2 -2 -2 -1 -1 -1 -1 -1 -1 -1 -1 -3 -4 -4 -4 -2 -1 -1 -1 -1 -1 -1 -1 -1 -1 -1 -1 -1 -1 -1 -1 -1 -1 -1 -1 -0 -0 -0 -0 -0 -0 -0 -0 -0 -0 -1 -1 -1 -1 -1 -1 -1 -1 -1 -1 -1 -1 -1 -1 -1 -1 -1 -1 -1 -1 -1 -1 -2 -2 -1 -1 -1 -1 -1 -1 -1 -1 -1 -1 -1 -1 -1 -1
-1 -3 -4 -3 -2 -1 -1 -0 -0 0 0 -0 -0 -0 -1 -1 -1 -1 -1 -1 -1 -2 -2 -2 -1 -1 -1 -1 -1 -1 -2 -3 -4 -6 -7 -6 -5 -3 -2 -2 -2 -2 -2 -2 -2 -2 -1 -1 -1 -1 -1 -1 -1 -1 -1 -1 -0 -0 -0 -1 -1 -1 -1 -1 -1 -1 -1 -1 -1 -1 -1 -1 -1 -1 -1 -1 -1 -1 -1 -1 -1 -1 -1 -1 -1 -1 -1 -1 -1 -1 -2 -1 -1 -1 -1 -1 -1 -1 -1 -1 -1 -1 -1
-1 -4 -5 -3 -2 -1 -1 -0 0 0 -0 -0 -0 -1 -1 -1 -1 -1 -0 -0 -0 -1 -1 -1 -1 -2 -2 -2 -2 -3 -3 -3 -3 -4 -5 -6 -6 -6 -4 -3 -3 -3 -3 -3 -3 -2 -2 -2 -2 -2 -2 -2 -1 -1 -2 -1 -1 -0 -0 -1 -1 -1 -1 -1 -1 -1 -1 -1 -1 -1 -1 -1 -1 -1 -1 -2 -2 -1 -1 -1 -1 -2 -2 -1 -1 -1 -1 -1 -1 -2 -2 -2 -2 -2 -2 -2 -2 -2 -1 -1 -1 -1 -1
0 -2 -4 -5 -4 -3 -2 -2 -2 -2 -2 -1 -1 -1 -2 -4 -4 -4 -3 -2 -1 -1 -2 -1 -2 -2 -3 -3 -4 -3 -3 -2 -1 -1 -2 -2 -3 -5 -5 -4 -3 -3 -3 -3 -3 -3 -3 -2 -2 -2 -2 -2 -2 -2 -2 -2 -2 -1 -1 -1 -1 -1 -1 -1 -1 -1 -1 -2 -2 -2 -1 -1 -1 -1 -1 -2 -2 -2 -2 -2 -1 -1 -1 -2 -2 -2 -2 -2 -2 -2 -2 -2 -2 -2 -2 -2 -2 -2 -2 -2 -2 -1 -1
-0 0 2 -1 -3 -4 -4 -5 -5 -5 -6 -6 -4 -2 -2 -4 -4 -5 -6 -6 -5 -4 -4 -4 -4 -3 -3 -3 -2 -2 -1 0 0 0 -0 -1 -1 -2 -4 -3 -3 -2 -2 -2 -2 -3 -3 -3 -3 -2 -2 -2 -2 -2 -2 -2 -2 -2 -1 -1 -1 -1 -2 -2 -2 -2 -2 -2 -2 -2 -2 -2 -2 -2 -2 -2 -2 -2 -2 -2 -2 -2 -2 -2 -2 -2 -2 -2 -2 -2 -2 -2 -2 -2 -2 -2 -2 -2 -2 -2 -2 -2 -2
1 4 7 7 6 3 0 -0 -0 -1 -2 -4 -5 -5 -3 -2 0 2 -0 -3 -4 -4 -4 -4 -4 -4 -3 -2 -1 0 1 1 1 1 1 -0 -1 -1 -2 -3 -2 -1 -1 -1 -1 -2 -2 -3 -3 -3 -3 -3 -3 -3 -3 -3 -3 -2 -2 -2 -2 -2 -2 -2 -2 -2 -2 -2 -2 -2 -2 -2 -2 -2 -2 -2 -2 -2 -2 -2 -2 -2 -2 -2 -2 -2 -1 -1 -1 -1 -1 -1 -1 -1 -1 -1 -1 -1 -2 -2 -2 -2 -2
3 4 5 5 6 6 5 4 4 3 1 2 -0 -2 -3 -2 -0 2 4 2 1 0 0 0 0 0 -0 0 0 0 0 0 1 1 1 0 -0 -1 -2 -3 -3 -3 -2 -1 -1 -1 -1 -2 -2 -2 -2 -3 -3 -3 -3 -3 -3 -3 -2 -2 -2 -2 -2 -2 -2 -2 -2 -2 -2 -2 -2 -2 -2 -2 -2 -2 -2 -2 -2 -2 -2 -2 -2 -2 -1 -1 -1 -1 -1 -1 -1 -1 -1 -1 -1 -1 -1 -1 -1 -1 -1 -1 -2
-1 -1 -1 -1 -1 0 1 1 1 0 -0 1 2 1 -0 -0 0 1 2 2 2 1 1 1 1 1 0 1 1 0 -1 -1 -1 0 1 1 0 0 -0 -1 -2 -3 -4 -3 -2 -2 -1 -1 -1 -1 -2 -2 -2 -3 -3 -3 -3 -3 -3 -3 -2 -3 -3 -3 -2 -2 -2 -2 -2 -2 -2 -2 -2 -2 -2 -2 -2 -2 -2 -2 -2 -1 -2 -1 -1 -1 -1 -1 -1 -1 -1 -1 -1 -1 -1 -1 -1 -1 -1 -1 -1 -1 -1
-1 -2 -2 -3 -2 -2 -1 -1 -1 -1 -1 0 0 0 0 1 1 1 1 1 1 -0 -1 -1 -1 -0 -0 0 0 1 -0 -1 -2 -1 -0 -0 -0 0 0 1 0 -0 -1 -3 -3 -4 -3 -2 -1 -1 -1 -1 -2 -2 -3 -3 -3 -3 -2 -2 -2 -2 -3 -3 -3 -2 -2 -2 -2 -2 -2 -2 -2 -2 -2 -2 -2 -2 -2 -2 -2 -1 -1 -1 -1 -1 -1 -1 -1 -1 -1 -1 -1 -1 -1 -1 -1 -1 -1 -0 -0 -0 -0
2 1 -0 0 0 0 1 1 -0 -1 -1 -1 -1 -1 -0 0 0 0 0 1 0 -1 -2 -1 -1 -1 -0 0 0 0 1 -1 -2 -2 -2 -1 -1 -1 -1 -0 0 1 1 0 -1 -3 -4 -4 -3 -1 -0 -1 -1 -2 -2 -2 -2 -2 -1 -1 -1 -1 -2 -2 -3 -3 -2 -2 -2 -2 -2 -2 -2 -2 -2 -2 -2 -2 -2 -2 -2 -1 -1 -1 -1 -1 -1 -1 -1 -1 -1 -1 -1 -1 -1 -1 -1 -1 -1 -1 -0 -0 -0
3 3 2 2 1 1 1 2 1 -1 -2 -1 -1 -1 -1 -0 0 0 0 1 1 1 -1 -1 -1 -0 -0 -0 -1 -0 -0 -0 -1 -1 -1 -2 -2 -3 -2 -1 -1 0 0 0 -0 -1 -2 -4 -4 -4 -2 -2 -2 -2 -2 -2 -2 -1 -1 -0 -0 -0 -1 -1 -2 -2 -2 -2 -2 -2 -2 -2 -2 -2 -2 -2 -2 -2 -2 -2 -2 -1 -1 -1 -1 -1 -1 -2 -1 -1 -1 -1 -1 -1 -1 -1 -1 -1 -1 -1 -1 -1 -1
2 3 3 1 -0 -0 1 1 0 -1 -2 -1 -0 -1 -1 -1 -0 0 -0 0 1 1 0 -0 -1 -2 -2 -2 -2 -2 -1 -1 -0 0 1 -0 -2 -3 -3 -2 -2 -1 -0 -0 -1 -1 -1 -2 -3 -4 -4 -3 -3 -3 -3 -3 -3 -2 -2 -1 0 1 1 0 -0 -1 -1 -1 -1 -1 -1 -1 -1 -1 -2 -2 -2 -2 -2 -2 -1 -1 -1 -2 -1 -1 -1 -1 -2 -2 -1 -1 -1 -1 -1 -1 -1 -1 -1 -1 -1 -1 -1
0 2 4 2 1 1 2 2 1 -0 -1 -1 -1 -1 -0 -0 -1 -1 -1 -1 -0 0 1 1 0 0 -1 -1 -2 -2 -2 -2 -2 -2 0 0 -0 -1 -2 -2 -2 -2 -1 -1 -1 -1 -1 -1 -1 -2 -3 -3 -3 -3 -3 -4 -4 -3 -3 -2 -1 0 1 1 0 -0 -1 -1 -1 -1 -1 -1 -1 -1 -1 -1 -1 -1 -1 -1 -1 -1 -1 -2 -2 -2 -1 -1 -1 -2 -2 -2 -2 -2 -1 -1 -1 -1 -1 -1 -1 -1 -1
-1 1 3 3 2 2 2 1 1 1 1 0 -1 -1 -1 0 -0 -0 -0 -0 -0 -0 1 1 2 2 2 1 -0 -1 -1 -2 -2 -2 -1 -0 0 0 0 -1 -1 -2 -1 -1 -1 -2 -1 -1 -1 -1 -1 -2 -2 -2 -2 -3 -4 -4 -4 -3 -3 -2 -0 0 0 0 -0 -1 -1 -1 -1 -1 -1 -1 -0 -1 -1 -1 -1 -1 -1 -1 -1 -1 -1 -1 -1 -1 -1 -1 -2 -2 -2 -2 -2 -2 -2 -2 -2 -2 -2 -2 -2
1 2 1 -0 0 1 1 1 0 0 0 1 0 -1 -1 -1 -0 0 1 0 -0 -0 -0 0 1 1 1 1 1 1 0 -0 -1 -2 -2 -1 -1 -0 0 0 -0 -1 -0 -1 -2 -2 -2 -2 -2 -1 -0 -0 -1 -1 -2 -3 -3 -4 -3 -4 -4 -3 -2 -0 0 0 0 -1 -1 -2 -2 -2 -1 -1 -1 -1 -1 -1 -1 -1 -1 -1 -1 -1 -1 -1 -1 -1 -1 -1 -1 -1 -1 -1 -2 -2 -2 -2 -2 -2 -2 -2 -2
1 2 1 -1 -2 -1 1 1 -0 -1 -0 0 0 -1 -2 -2 -1 -0 0 0 0 0 0 0 1 1 1 1 2 2 2 1 0 -1 -2 -2 -2 -1 -0 0 0 0 1 -0 -1 -1 -2 -3 -3 -2 -0 0 -0 -0 -0 -2 -3 -3 -4 -4 -4 -3 -2 -1 -0 0 0 0 -0 -1 -2 -2 -2 -2 -1 -1 -1 -0 -0 -0 -0 -0 -1 -1 -1 -1 -1 -1 -1 -1 -1 -1 -1 -2 -2 -2 -2 -2 -2 -2 -2 -2 -2
0 1 2 2 1 0 -0 0 0 1 1 1 0 -1 -2 -2 -2 -1 0 1 1 1 0 0 0 0 1 0 0 0 0 0 -0 -1 -2 -2 -2 -2 -1 -1 -1 0 1 -0 -0 -0 -0 -2 -3 -3 -1 -1 -0 0 0 -1 -2 -3 -3 -3 -3 -3 -2 -1 -1 0 1 1 1 0 -0 -1 -2 -2 -2 -2 -1 -1 -1 -0 -0 -0 -0 -0 -0 -0 -1 -1 -1 -1 -1 -1 -1 -1 -2 -2 -2 -2 -2 -2 -2 -2 -2
-2 -1 2 3 2 2 1 -0 -0 0 1 1 0 -1 -1 -1 -1 -1 -1 0 0 0 -0 -0 -0 -0 0 -0 -1 -1 -0 0 -0 -1 -1 -1 -1 -1 -1 -2 -2 -1 -1 -1 -0 0 0 -1 -2 -2 -2 -2 -2 -1 -1 -1 -2 -3 -3 -3 -3 -2 -2 -2 -1 0 1 1 2 2 1 1 -0 -1 -1 -2 -2 -2 -1 -1 -1 -1 -0 -0 -0 -0 -0 -0 -1 -1 -1 -1 -1 -1 -1 -1 -1 -2 -2 -2 -2 -2 -3
-2 -2 1 2 3 3 1 1 0 -0 -0 -1 -1 -1 -1 0 0 -0 -2 -2 -2 -1 -1 -0 -0 -1 -0 -1 -1 -1 -1 -0 -0 -1 -1 -1 -1 -0 -1 -2 -2 -2 -3 -3 -2 -1 -1 -1 -1 -1 -2 -2 -2 -2 -2 -2 -3 -4 -4 -3 -3 -3 -2 -2 -1 -0 1 2 2 2 2 2 2 1 0 -0 -1 -1 -1 -1 -1 -1 -1 -1 -1 -0 -0 -0 -0 -0 -1 -1 -1 -1 -1 -1 -1 -1 -2 -2 -2 -2 -2
0 -1 -0 0 0 0 0 2 2 1 -0 -1 -1 -1 0 1 1 -0 -3 -3 -2 -1 -1 -1 -1 -1 -0 -1 -2 -2 -2 -1 -2 -2 -2 -2 -2 -2 -2 -2 -2 -3 -4 -5 -4 -3 -3 -3 -2 -1 -2 -2 -2 -2 -2 -2 -3 -4 -4 -4 -4 -3 -3 -3 -2 -1 -0 1 1 2 3 3 3 3 2 1 1 0 -0 -1 -1 -1 -1 -1 -1 -1 -1 -1 -0 -0 -0 -0 -1 -1 -1 -0 -0 -1 -1 -1 -2 -2 -2
2 1 1 -0 -1 -1 -1 0 1 1 -1 -1 -1 -1 -0 0 0 -1 -3 -3 -3 -2 -1 -2 -2 -2 -1 -2 -2 -3 -2 -2 -3 -3 -3 -2 -2 -2 -2 -2 -2 -3 -4 -4 -4 -5 -6 -5 -3 -2 -3 -2 -2 -2 -1 -2 -2 -2 -2 -3 -3 -4 -4 -4 -3 -2 -2 -1 -0 1 2 3 3 3 3 3 2 2 1 0 -0 -0 -1 -0 -0 -0 -0 -0 -0 -0 -0 -0 -0 -0 -0 -0 -0 -0 -1 -1 -1 -1 -1
2 2 1 -1 -2 -3 -3 -3 -3 -2 -2 -2 -1 -1 -0 -1 -1 -1 -3 -3 -3 -2 -1 -2 -3 -3 -2 -2 -3 -3 -3 -2 -3 -4 -3 -3 -3 -3 -2 -1 -2 -2 -3 -2 -3 -4 -5 -4 -4 -3 -3 -2 -2 -2 -1 -2 -2 -1 -0 -2 -3 -4 -4 -5 -4 -3 -3 -3 -2 -1 -0 1 2 3 3 3 3 3 3 2 1 1 0 -0 -0 -0 -0 0 0 0 0 0 0 0 0 0 0 0 -0 -0 0 -0 -0
-1 -1 -1 -3 -4 -4 -5 -4 -3 -2 -1 -1 -1 -1 -0 -1 -1 -2 -2 -3 -2 -2 -1 -2 -2 -3 -3 -2 -3 -3 -3 -2 -3 -4 -3 -3 -3 -3 -3 -2 -2 -3 -2 -1 -2 -2 -3 -2 -2 -2 -2 -2 -1 -2 -3 -3 -2 -1 -0 -1 -2 -3 -4 -5 -5 -4 -4 -5 -4 -3 -2 -1 0 1 2 2 3 3 3 3 3 2 2 1 1 0 0 1 1 1 1 1 1 1 1 1 1 1 1 1 0 0 0
-2 -2 -2 -3 -3 -3 -3 -3 -2 -1 -0 -1 -1 -1 -1 -1 -2 -2 -1 -1 -2 -2 -1 -1 -2 -3 -3 -1 -1 -2 -3 -1 -1 -2 -2 -1 -2 -2 -2 -2 -2 -3 -3 -2 -2 -3 -3 -2 -2 -2 -1 -0 -0 -1 -3 -2 -1 -0 -1 -1 -1 -1 -2 -3 -4 -4 -5 -5 -5 -4 -3 -2 -1 -1 -1 0 1 2 2 3 3 2 2 2 2 1 1 1 1 2 2 2 2 2 2 2 2 2 1 1 1 1 1
-2 -2 -1 -1 -2 -1 -1 -1 -1 -0 -0 -1 -1 -1 -0 -1 -1 -1 -1 -1 -1 -1 -1 -0 -1 -2 -2 -1 -1 -1 -2 -1 -1 -1 -2 -1 -1 -0 -0 -1 -2 -2 -3 -3 -4 -4 -4 -3 -2 -2 -1 -0 -0 -1 -2 -1 -0 -0 -0 -1 -1 -1 -1 -2 -2 -3 -3 -4 -4 -4 -4 -3 -3 -3 -2 -1 -1 0 1 1 2 2 2 2 2 2 2 2 2 2 2 3 3 3 3 3 3 2 2 2 2 1 1
-1 -1 -1 -2 -1 -1 -1 -0 0 -0 -1 -2 -1 -1 -1 -1 -1 -1 -1 -1 -1 -1 -1 0 0 -0 -1 -1 -1 -1 -1 -1 -1 -0 -1 -2 -1 -1 -0 -1 -1 -1 -1 -2 -4 -5 -5 -4 -3 -3 -1 -1 -2 -2 -1 -0 0 -0 0 -1 -1 -1 -1 -1 -1 -1 -1 -1 -2 -2 -3 -3 -3 -3 -2 -2 -2 -1 -1 -0 0 1 1 2 2 2 2 2 2 2 3 3 3 3 3 3 3 3 3 3 3 2 2
-1 -1 -1 -1 -1 -1 -1 0 0 -0 -1 -2 -2 -1 -1 -1 -0 0 -0 -1 -1 -1 -2 0 0 -0 -1 -1 -0 0 0 -1 -1 -0 -0 -1 -2 -2 -1 -1 -1 -1 -1 -1 -2 -3 -4 -4 -4 -3 -2 -2 -3 -2 -1 -0 -0 -0 -0 -1 -2 -2 -2 -1 -1 -0 -0 0 -0 -1 -2 -2 -2 -2 -2 -2 -2 -2 -2 -1 -0 0 1 2 2 2 2 2 2 2 2 2 3 3 3 3 3 3 3 3 3 3 3
-2 -1 -1 -1 -1 -1 -0 0 0 -0 -1 -1 -1 -1 -1 -1 -0 0 0 0 -0 -1 -2 -1 -0 -0 -1 -1 -0 0 1 0 0 -0 -0 -1 -1 -1 -1 -1 -1 -1 -1 -1 -2 -2 -2 -3 -3 -2 -3 -3 -3 -2 -2 -1 -1 -1 -1 -2 -2 -2 -2 -2 -1 -0 -0 -0 -1 -1 -2 -2 -2 -2 -2 -2 -2 -2 -2 -1 -0 0 1 1 2 2 2 2 2 2 2 2 2 2 2 3 3 3 3 3 3 3 3
-2 -1 -1 -1 -1 -0 0 1 0 -0 -1 -1 -1 -1 -1 -1 -0 0 1 1 0 -0 -1 -1 -1 -1 -2 -1 -1 -0 0 1 1 0 -0 -1 -1 -1 -1 -1 -0 -0 -1 -1 -1 -0 -1 -1 -1 -2 -2 -2 -2 -2 -2 -2 -2 -1 -2 -2 -2 -2 -2 -2 -1 -1 -1 -1 -2 -2 -2 -2 -1 -2 -2 -2 -2 -2 -2 -1 -0 0 0 1 1 1 1 1 1 1 1 1 1 2 2 2 2 2 3 3 3 3 3
-0 -0 -0 0 0 1 1 1 1 0 -0 -1 -1 -1 -1 -0 0 0 1 1 1 0 -1 -1 -1 -1 -1 -1 -1 -1 -1 0 1 0 -1 -1 -1 -2 -2 -2 -1 -0 -1 -2 -1 -1 0 -0 -1 -1 -1 -1 -1 -2 -2 -2 -2 -2 -2 -2 -2 -2 -2 -1 -1 -1 -1 -2 -2 -2 -2 -1 -1 -1 -2 -3 -3 -3 -3 -2 -1 -0 -0 0 1 1 1 1 1 1 0 1 1 1 1 1 2 2 2 2 2 2 2
-0 -0 -0 0 1 1 1 1 1 1 0 0 -0 -0 -0 0 1 1 1 1 1 0 0 0 -1 -1 -1 -1 -1 -1 -1 -1 -1 -1 -2 -3 -3 -2 -2 -3 -4 -4 -3 -4 -4 -4 -2 -2 -2 -2 -1 -1 -1 -1 -2 -2 -2 -2 -2 -2 -2 -2 -2 -1 -1 -1 -1 -1 -2 -2 -1 -1 -1 -1 -1 -2 -3 -3 -3 -3 -2 -2 -1 -0 0 0 1 1 1 0 0 0 0 0 0 1 1 1 1 1 1 2 2
-1 -1 -1 -0 0 1 1 1 1 1 1 0 0 0 1 2 2 2 2 2 1 1 1 0 0 -0 -0 -1 -0 0 -0 -0 -1 -1 -2 -3 -3 -3 -2 -2 -4 -5 -5 -5 -6 -7 -5 -4 -4 -3 -2 -1 -1 -1 -2 -2 -2 -2 -2 -2 -2 -2 -2 -2 -1 -1 -1 -1 -1 -1 -1 -1 -1 -1 -1 -2 -2 -2 -3 -3 -3 -3 -2 -2 -1 -1 -0 0 0 0 1 1 0 0 0 0 0 0 0 0 1 1 1
-1 -1 -1 -1 -0 0 0 1 2 1 1 0 0 1 1 1 2 2 3 3 2 2 1 -0 -0 -0 -1 -1 -0 1 2 1 1 0 -1 -1 -2 -3 -4 -2 -2 -2 -3 -3 -4 -6 -6 -6 -5 -4 -2 -1 -0 -1 -1 -2 -2 -2 -2 -2 -3 -3 -2 -2 -2 -2 -2 -2 -1 -0 -0 -1 -1 -1 -1 -1 -1 -2 -2 -2 -3 -3 -3 -3 -2 -2 -2 -1 -0 0 1 1 1 0 0 -0 -1 -1 -1 -0 -0 0 0
-1 -1 -1 -1 -1 -0 -0 1 2 2 1 1 1 1 1 1 1 1 2 2 3 3 2 0 0 0 -1 -2 -1 0 3 2 2 1 -1 -0 0 0 -2 -4 -5 -6 -7 -5 -3 -1 -3 -6 -7 -5 -2 -0 -0 -1 -1 -2 -3 -3 -3 -4 -4 -4 -3 -3 -3 -4 -5 -4 -3 -1 -0 -0 -0 -1 -1 -1 -1 -1 -1 -2 -2 -2 -3 -3 -3 -3 -3 -3 -2 -1 0 1 1 0 0 -0 -1 -1 -1 -1 -1 -0 -0
-2 -2 -2 -2 -1 -1 -1 0 1 2 2 2 1 1 1 1 1 1 1 1 2 3 3 2 1 1 1 -1 -2 -1 2 2 2 1 -2 -1 1 3 1 -2 -5 -7 -7 -6 -1 2 2 -4 -6 -4 -0 1 0 -1 -1 -2 -3 -4 -4 -5 -5 -5 -4 -3 -3 -3 -5 -6 -5 -3 -1 -1 -0 -0 -0 -0 -0 0 0 -0 -1 -1 -2 -2 -2 -3 -3 -4 -3 -2 -1 -0 -0 -0 -0 -1 -1 -1 -1 -1 -1 -1 -0
-2 -1 -1 -2 -2 -1 -1 -1 0 1 2 1 1 1 1 2 1 1 1 1 1 1 2 2 2 2 2 1 -0 -1 -0 1 1 0 -1 -1 0 2 3 0 -2 -3 -2 -6 -10 -12 -6 2 7 7 2 -0 -1 -1 -0 -2 -3 -4 -4 -5 -6 -6 -5 -4 -4 -3 -5 -6 -6 -6 -5 -3 -2 -1 -0 -0 0 0 0 0 0 0 -0 -1 -2 -2 -3 -3 -3 -2 -2 -2 -1 -1 -1 -1 -1 -1 -1 -1 -1 -1 -1
-1 0 0 0 -0 -0 -0 -0 0 1 1 1 0 1 1 2 2 2 2 2 1 1 1 1 1 2 1 1 1 0 0 1 1 0 -0 -1 -1 -0 1 2 1 0 1 1 -3 -8 -11 5 23 29 9 2 -3 -5 -4 -3 -3 -3 -4 -4 -5 -5 -5 -5 -5 -5 -5 -6 -6 -6 -7 -6 -5 -3 -1 -1 -0 0 1 1 1 1 0 -0 -1 -1 -2 -2 -2 -2 -3 -3 -2 -1 -1 -1 -1 -1 -0 -1 -1 -1 -0
0 1 1 2 2 2 1 1 1 1 1 0 -0 -1 -0 1 2 2 3 3 3 3 3 1 1 0 0 -0 1 2 2 3 3 2 1 0 -1 -2 -1 0 0 -0 -1 2 2 1 -1 4 -0 -2 10 8 7 7 5 -1 -3 -4 -5 -5 -5 -4 -4 -3 -4 -4 -5 -5 -6 -6 -7 -7 -7 -7 -5 -4 -2 -1 -0 0 0 0 0 0 -0 -1 -1 -1 -1 -2 -3 -3 -2 -2 -2 -1 -1 -0 -0 -0 -0 -0 -0
0 1 2 2 2 2 2 2 2 1 1 1 0 -1 -1 -1 -0 1 2 3 4 5 5 4 2 1 -0 -1 -1 0 2 3 4 3 1 1 -1 -2 -1 1 1 0 -0 0 -1 -0 4 1 -7 -15 -15 -3 3 6 9 10 7 1 -2 -4 -5 -6 -5 -4 -3 -3 -4 -4 -4 -5 -5 -6 -7 -8 -8 -7 -6 -5 -3 -2 -1 -1 -1 -1 -1 -1 -1 -1 -1 -1 -1 -2 -2 -2 -2 -1 -1 -0 -0 -0 -0 0 -0
1 1 2 2 2 2 2 2 2 2 2 2 1 -0 -1 -1 -1 -1 -0 2 3 4 5 5 4 3 2 0 -1 -1 -1 -0 2 4 4 2 1 -1 -3 -2 -1 -0 1 -1 -3 -5 -3 -1 -3 -9 -16 -7 -4 -4 -4 0 4 5 3 -0 -3 -5 -6 -5 -5 -4 -4 -4 -4 -4 -4 -4 -5 -6 -7 -8 -8 -8 -7 -5 -4 -2 -2 -2 -2 -2 -2 -2 -1 -1 -1 -2 -2 -2 -2 -1 -1 -1 -0 0 0 0 0
1 1 1 2 2 2 2 2 2 2 2 2 2 1 -0 -1 -1 -1 -1 0 2 3 5 4 3 2 3 3 1 -1 -3 -2 0 4 6 4 1 -1 -3 -4 -2 0 1 0 0 -0 -2 -1 1 -1 -9 -11 -7 -3 -5 -4 -2 0 2 1 -1 -3 -4 -5 -5 -5 -5 -5 -5 -5 -4 -4 -4 -4 -5 -6 -7 -8 -8 -7 -6 -5 -4 -3 -3 -3 -3 -2 -2 -2 -2 -2 -3 -3 -2 -1 -1 -1 -0 0 0 0 1
2 2 1 1 2 2 2 2 2 1 1 2 2 1 -0 -0 -0 -0 -0 0 1 2 3 3 2 2 3 3 2 -1 -4 -3 -0 3 5 4 2 -1 -3 -3 -3 -3 -3 -1 1 3 3 0 -1 -1 1 -7 -11 -9 2 -0 -3 -4 -2 -0 0 -0 -2 -4 -5 -6 -6 -6 -6 -5 -5 -4 -4 -3 -4 -5 -5 -6 -7 -7 -7 -6 -6 -5 -4 -4 -3 -3 -2 -3 -3 -3 -3 -3 -2 -1 -1 -0 -0 -0 0 0 0
2 2 2 1 2 2 2 1 1 1 1 1 1 1 -0 -0 0 1 1 0 1 2 2 2 2 2 2 2 1 -1 -3 -3 -0 2 3 2 1 1 1 -1 -3 -4 -4 -3 -1 1 1 -0 -1 0 3 1 -6 -12 -14 -6 -3 -4 -5 -3 -1 1 2 -1 -2 -4 -6 -6 -6 -5 -6 -5 -4 -3 -3 -4 -4 -5 -5 -6 -6 -7 -7 -6 -5 -5 -4 -3 -3 -3 -3 -3 -3 -3 -2 -2 -1 -1 -0 -0 0 0 -0
2 2 2 2 2 2 2 1 1 1 1 1 1 -0 -1 -0 1 2 2 1 1 1 1 1 1 1 2 2 1 -0 -2 -1 -0 1 2 1 0 2 5 3 0 -2 -3 -3 -2 -2 -1 -2 -0 1 2 2 0 -3 -11 -12 -9 -4 -4 -4 -2 0 3 3 3 2 -1 -4 -5 -5 -6 -6 -5 -4 -3 -3 -3 -3 -4 -5 -5 -6 -6 -6 -6 -6 -5 -4 -4 -4 -4 -4 -4 -3 -2 -2 -2 -1 -1 -0 0 0 0
Height
1568 1568 1568 1568 1568 1567 1567 1567 1567 1566 1566 1566 1566 1566 1565 1565 1565 1565 1565 1564 1564 1564 1564 1563 1563 1563 1563 1563 1562 1562 1562 1562 1562 1562 1562 1561 1561 1561 1561 1561 1561 1561 1561 1561 1561 1561 1560 1560 1560 1560 1560 1560 1560 1561 1560 1560 1560 1560 1560 1560 1559 1559 1559 1559 1558 1558 1558 1558 1557 1557 1556 1556 1556 1556 1556 1555 1555 1555 1555 1555 1555 1555 1555 1555 1554 1554 1554 1554 1554 1554 1554 1554 1554 1553 1553 1553 1553 1553 1552 1552 1552 1552 1552
1568 1568 1568 1568 1568 1568 1567 1567 1567 1567 1567 1566 1566 1566 1566 1565 1565 1565 1565 1565 1564 1564 1564 1564 1563 1563 1563 1563 1562 1562 1562 1562 1562 1562 1561 1561 1561 1561 1561 1561 1561 1561 1561 1561 1561 1561 1560 1560 1560 1560 1560 1560 1560 1560 1560 1560 1560 1560 1560 1559 1559 1558 1558 1558 1558 1558 1558 1558 1557 1557 1556 1556 1556 1556 1556 1555 1555 1555 1555 1555 1555 1555 1555 1555 1554 1554 1554 1554 1554 1554 1554 1554 1554 1553 1553 1553 1553 1552 1552 1552 1552 1552 1552
1568 1568 1568 1568 1568 1568 1567 1567 1567 1567 1567 1567 1566 1566 1566 1566 1565 1565 1565 1565 1565 1564 1564 1564 1563 1563 1563 1563 1562 1562 1562 1562 1562 1561 1561 1561 1561 1561 1561 1561 1561 1561 1561 1561 1561 1560 1560 1560 1560 1560 1560 1560 1560 1560 1560 1560 1560 1560 1559 1559 1558 1558 1558 1558 1558 1558 1558 1557 1557 1557 1556 1556 1556 1555 1555 1555 1555 1555 1555 1555 1555 1555 1555 1555 1554 1554 1554 1554 1554 1554 1554 1554 1553 1553 1553 1553 1553 1552 1552 1552 1552 1552 1551
1568 1568 1568 1568 1568 1568 1567 1567 1567 1567 1567 1567 1566 1566 1566 1566 1566 1565 1565 1565 1565 1564 1564 1564 1564 1563 1563 1563 1562 1562 1562 1562 1562 1561 1561 1561 1561 1561 1561 1561 1561 1561 1561 1560 1560 1560 1560 1560 1560 1560 1560 1560 1560 1560 1560 1560 1560 1559 1559 1559 1558 1558 1558 1557 1557 1557 1557 1557 1557 1557 1556 1556 1556 1555 1555 1555 1555 1555 1555 1555 1555 1555 1555 1555 1554 1554 1554 1554 1554 1553 1553 1553 1553 1553 1553 1553 1553 1553 1552 1552 1552 1551 1551
1568 1568 1568 1568 1568 1568 1567 1567 1567 1567 1567 1567 1566 1566 1566 1566 1566 1565 1565 1565 1565 1565 1564 1564 1564 1563 1563 1563 1562 1562 1562 1562 1561 1561 1561 1561 1561 1561 1560 1560 1560 1560 1560 1560 1560 1560 1560 1560 1560 1560 1560 1560 1560 1560 1560 1559 1559 1559 1559 1558 1558 1558 1558 1557 1557 1557 1557 1556 1556 1556 1556 1556 1555 1555 1555 1555 1555 1555 1555 1555 1555 1555 1554 1554 1554 1554 1554 1554 1554 1553 1553 1553 1553 1553 1553 1552 1552 1552 1552 1552 1552 1551 1551
1568 1568 1568 1568 1568 1568 1567 1567 1567 1567 1567 1567 1566 1566 1566 1566 1566 1565 1565 1565 1565 1565 1564 1564 1564 1563 1563 1563 1562 1562 1562 1562 1561 1561 1561 1561 1561 1560 1560 1560 1560 1560 1560 1560 1560 1560 1560 1560 1560 1560 1560 1560 1560 1560 1559 1559 1559 1559 1558 1558 1558 1558 1557 1557 1557 1557 1556 1556 1556 1556 1556 1555 1555 1555 1555 1555 1555 1555 1555 1554 1554 1554 1554 1554 1554 1554 1554 1554 1553 1553 1553 1553 1553 1552 1552 1552 1552 1552 1552 1552 1551 1551 1551
1568 1568 1568 1568 1568 1568 1567 1567 1567 1567 1567 1567 1566 1566 1566 1566 1566 1565 1565 1565 1565 1565 1565 1564 1564 1564 1563 1563 1563 1562 1562 1562 1561 1561 1561 1561 1561 1560 1560 1560 1560 1560 1560 1560 1560 1560 1560 1560 1560 1560 1559 1559 1559 1559 1559 1559 1559 1558 1558 1558 1558 1558 1557 1557 1557 1556 1556 1556 1556 1555 1555 1555 1555 1555 1555 1555 1555 1555 1554 1554 1554 1554 1554 1554 1554 1554 1554 1553 1553 1553 1553 1553 1552 1552 1552 1552 1552 1551 1551 1551 1551 1551 1551
1568 1568 1568 1568 1568 1567 1567 1567 1567 1567 1567 1567 1566 1566 1566 1566 1566 1565 1565 1565 1565 1565 1565 1564 1564 1564 1563 1563 1563 1562 1562 1562 1561 1561 1561 1561 1560 1560 1560 1560 1560 1560 1560 1559 1559 1559 1559 1559 1559 1559 1559 1559 1559 1559 1559 1559 1558 1558 1558 1558 1557 1557 1557 1557 1556 1556 1556 1556 1555 1555 1555 1555 1555 1555 1555 1555 1555 1554 1554 1554 1554 1554 1554 1553 1553 1553 1553 1553 1553 1553 1553 1552 1552 1552 1552 1552 1551 1551 1551 1551 1551 1551 1550
1568 1568 1568 1568 1568 1567 1567 1567 1567 1567 1567 1567 1566 1566 1566 1566 1566 1565 1565 1565 1565 1565 1565 1564 1564 1564 1563 1563 1563 1562 1562 1562 1561 1561 1561 1560 1560 1560 1560 1560 1560 1560 1559 1559 1559 1559 1559 1559 1559 1559 1559 1558 1558 1558 1558 1558 1558 1558 1557 1557 1557 1557 1557 1557 1556 1556 1556 1555 1555 1555 1555 1555 1555 1555 1555 1554 1554 1554 1554 1554 1554 1554 1553 1553 1553 1553 1553 1553 1553 1553 1553 1552 1552 1552 1552 1551 1551 1551 1551 1551 1550 1550 1550
1568 1568 1568 1568 1568 1567 1567 1567 1567 1567 1567 1566 1566 1566 1566 1566 1566 1565 1565 1565 1565 1565 1565 1565 1564 1564 1564 1563 1563 1562 1562 1562 1561 1561 1561 1560 1560 1560 1560 1560 1560 1559 1559 1559 1559 1559 1558 1558 1558 1558 1558 1558 1558 1558 1558 1558 1557 1557 1557 1557 1557 1557 1556 1556 1556 1556 1555 1555 1555 1555 1555 1555 1555 1554 1554 1554 1554 1554 1554 1554 1554 1553 1553 1553 1553 1553 1553 1553 1553 1553 1552 1552 1552 1552 1552 1551 1551 1551 1551 1550 1550 1550 1550
1567 1567 1567 1567 1567 1567 1567 1567 1567 1567 1566 1566 1566 1566 1566 1566 1566 1565 1565 1565 1565 1565 1565 1565 1564 1564 1564 1563 1563 1562 1562 1562 1561 1561 1561 1560 1560 1560 1560 1560 1559 1559 1559 1559 1559 1558 1558 1558 1558 1558 1558 1557 1557 1557 1557 1557 1557 1557 1557 1556 1556 1556 1556 1556 1555 1555 1555 1555 1555 1555 1554 1554 1554 1554 1554 1554 1554 1554 1553 1553 1553 1553 1553 1553 1553 1552 1552 1552 1552 1552 1552 1552 1552 1552 1551 1551 1551 1551 1551 1550 1550 1550 1550
1567 1567 1567 1567 1567 1567 1567 1567 1567 1567 1566 1566 1566 1566 1566 1565 1565 1565 1565 1565 1565 1565 1565 1565 1564 1564 1564 1563 1563 1562 1562 1562 1561 1561 1561 1560 1560 1560 1560 1559 1559 1559 1559 1559 1558 1558 1558 1558 1557 1557 1557 1557 1557 1557 1557 1556 1556 1556 1556 1556 1556 1556 1555 1555 1555 1555 1555 1555 1554 1554 1554 1554 1554 1554 1553 1553 1553 1553 1553 1553 1553 1553 1553 1553 1552 1552 1552 1552 1552 1552 1552 1552 1551 1551 1551 1551 1551 1551 1550 1550 1550 1550 1550
1567 1567 1567 1567 1567 1567 1567 1567 1567 1566 1566 1566 1566 1566 1565 1565 1565 1565 1565 1565 1565 1565 1565 1565 1564 1564 1564 1563 1563 1562 1562 1562 1561 1561 1561 1560 1560 1560 1559 1559 1559 1559 1559 1558 1558 1558 1558 1557 1557 1557 1557 1557 1556 1556 1556 1556 1556 1556 1556 1555 1555 1555 1555 1555 1555 1554 1554 1554 1554 1554 1553 1553 1553 1553 1553 1553 1553 1553 1553 1553 1552 1552 1552 1552 1552 1552 1552 1552 1551 1551 1551 1551 1551 1551 1551 1551 1550 1550 1550 1550 1550 1550 1549
1567 1567 1567 1567 1567 1567 1567 1567 1567 1566 1566 1566 1566 1565 1565 1565 1565 1565 1565 1565 1565 1565 1565 1564 1564 1564 1564 1563 1563 1562 1562 1562 1561 1561 1560 1560 1560 1560 1559 1559 1559 1558 1558 1558 1558 1558 1557 1557 1557 1557 1556 1556 1556 1556 1556 1555 1555 1555 1555 1555 1555 1555 1555 1554 1554 1554 1554 1553 1553 1553 1553 1553 1553 1553 1552 1552 1552 1552 1552 1552 1552 1552 1552 1552 1552 1551 1551 1551 1551 1551 1551 1551 1551 1550 1550 1550 1550 1550 1550 1550 1550 1550 1549
1566 1566 1566 1566 1566 1566 1566 1566 1566 1566 1566 1566 1565 1565 1565 1565 1565 1565 1565 1564 1564 1564 1564 1564 1564 1564 1563 1563 1563 1562 1562 1561 1561 1561 1560 1560 1560 1559 1559 1559 1558 1558 1558 1558 1557 1557 1557 1557 1556 1556 1556 1556 1556 1555 1555 1555 1555 1555 1555 1555 1554 1554 1554 1554 1554 1553 1553 1553 1553 1553 1552 1552 1552 1552 1552 1552 1552 1552 1552 1552 1551 1551 1551 1551 1551 1551 1551 1551 1551 1550 1550 1550 1550 1550 1550 1550 1550 1550 1550 1549 1549 1549 1549
1566 1566 1566 1566 1566 1566 1566 1566 1566 1566 1566 1565 1565 1565 1565 1565 1565 1564 1564 1564 1564 1564 1564 1563 1563 1563 1563 1563 1562 1562 1561 1561 1561 1560 1560 1560 1559 1559 1559 1559 1558 1558 1558 1557 1557 1557 1556 1556 1556 1556 1555 1555 1555 1555 1555 1555 1555 1554 1554 1554 1554 1554 1554 1553 1553 1553 1553 1553 1552 1552 1552 1552 1552 1552 1551 1551 1551 1551 1551 1551 1551 1551 1551 1551 1550 1550 1550 1550 1550 1550 1550 1550 1550 1550 1550 1550 1549 1549 1549 1549 1549 1549 1549
1565 1565 1565 1565 1565 1566 1566 1566 1566 1566 1565 1565 1565 1565 1565 1564 1564 1564 1564 1563 1563 1563 1563 1563 1563 1562 1562 1562 1562 1561 1561 1560 1560 1560 1560 1560 1559 1559 1558 1558 1558 1558 1557 1557 1556 1556 1556 1556 1555 1555 1555 1555 1555 1555 1554 1554 1554 1554 1554 1554 1553 1553 1553 1553 1553 1553 1552 1552 1552 1552 1552 1551 1551 1551 1551 1551 1551 1551 1551 1550 1550 1550 1550 1550 1550 1550 1550 1550 1550 1550 1549 1549 1549 1549 1549 1549 1549 1549 1549 1548 1548 1548 1548
1565 1565 1565 1565 1565 1565 1565 1565 1565 1565 1565 1565 1565 1564 1564 1564 1564 1563 1563 1563 1563 1562 1562 1562 1562 1561 1561 1561 1561 1560 1560 1560 1559 1559 1559 1559 1559 1558 1558 1558 1557 1557 1557 1556 1556 1556 1555 1555 1555 1555 1555 1554 1554 1554 1554 1554 1553 1553 1553 1553 1553 1553 1553 1552 1552 1552 1552 1552 1552 1551 1551 1551 1551 1551 1550 1550 1550 1550 1550 1550 1550 1550 1550 1550 1550 1550 1550 1549 1549 1549 1549 1549 1549 1548 1548 1548 1548 1548 1548 1548 1548 1548 1548
1565 1565 1565 1565 1565 1565 1565 1565 1565 1565 1564 1564 1564 1564 1564 1563 1563 1563 1563 1562 1562 1562 1561 1561 1561 1560 1560 1560 1560 1560 1559 1559 1558 1558 1557 1557 1557 1557 1557 1557 1557 1556 1556 1556 1555 1555 1555 1555 1554 1554 1554 1553 1553 1553 1553 1553 1553 1553 1552 1552 1552 1552 1552 1552 1552 1551 1551 1551 1551 1551 1551 1550 1550 1550 1550 1550 1550 1550 1550 1550 1549 1549 1549 1549 1549 1549 1549 1549 1549 1548 1548 1548 1548 1548 1548 1548 1548 1548 1547 1547 1547 1547 1547
1566 1565 1565 1565 1565 1564 1564 1564 1564 1564 1564 1564 1563 1563 1563 1563 1563 1562 1562 1562 1562 1561 1561 1560 1560 1560 1560 1559 1559 1558 1558 1558 1558 1557 1557 1556 1556 1556 1556 1556 1556 1556 1555 1555 1555 1554 1554 1554 1554 1553 1553 1553 1552 1552 1552 1552 1552 1552 1552 1551 1551 1551 1551 1551 1551 1551 1550 1550 1550 1550 1550 1550 1550 1550 1550 1549 1549 1549 1549 1549 1549 1549 1549 1548 1548 1548 1548 1548 1548 1548 1547 1547 1547 1547 1547 1547 1547 1547 1547 1547 1547 1547 1546
1567 1566 1565 1564 1564 1563 1563 1563 1563 1563 1563 1563 1563 1563 1562 1562 1561 1561 1561 1561 1561 1560 1560 1560 1560 1559 1559 1558 1558 1558 1558 1558 1558 1557 1557 1556 1555 1555 1555 1555 1555 1555 1555 1554 1554 1554 1553 1553 1553 1552 1552 1552 1552 1551 1551 1551 1551 1551 1551 1551 1550 1550 1550 1550 1550 1550 1550 1550 1550 1550 1549 1549 1549 1549 1549 1549 1548 1548 1548 1548 1548 1548 1548 1548 1547 1547 1547 1547 1547 1547 1547 1546 1546 1546 1546 1546 1546 1546 1546 1546 1546 1546 1546
1567 1566 1566 1565 1564 1563 1563 1562 1562 1562 1561 1561 1561 1562 1562 1562 1561 1561 1560 1560 1560 1560 1559 1559 1559 1558 1558 1558 1558 1558 1558 1558 1558 1557 1556 1556 1555 1555 1554 1554 1553 1554 1553 1553 1553 1553 1552 1552 1552 1552 1551 1551 1551 1550 1550 1550 1550 1550 1550 1550 1550 1550 1549 1549 1549 1549 1549 1549 1549 1549 1548 1548 1548 1548 1548 1548 1548 1547 1547 1547 1547 1547 1547 1547 1546 1546 1546 1546 1546 1546 1546 1546 1545 1545 1545 1545 1545 1545 1545 1545 1545 1545 1545
1567 1567 1567 1567 1566 1565 1564 1563 1563 1563 1562 1561 1561 1561 1561 1562 1562 1562 1561 1560 1560 1559 1559 1559 1558 1558 1558 1558 1558 1558 1558 1558 1558 1557 1556 1555 1555 1554 1553 1552 1552 1552 1552 1552 1552 1551 1551 1551 1551 1550 1550 1550 1550 1550 1549 1549 1549 1549 1549 1549 1549 1549 1548 1548 1548 1548 1548 1548 1548 1548 1547 1547 1547 1547 1547 1547 1547 1546 1546 1546 1546 1546 1546 1546 1545 1545 1545 1545 1545 1545 1545 1545 1545 1545 1545 1544 1544 1544 1544 1544 1544 1544 1544
1566 1567 1567 1567 1566 1566 1565 1565 1564 1564 1563 1563 1562 1561 1561 1561 1562 1562 1562 1561 1560 1560 1560 1560 1559 1559 1559 1558 1558 1558 1558 1557 1557 1556 1556 1555 1554 1553 1552 1552 1551 1550 1550 1550 1550 1550 1550 1549 1549 1549 1549 1549 1548 1548 1548 1548 1548 1548 1548 1548 1548 1548 1547 1547 1547 1547 1547 1547 1547 1547 1546 1546 1546 1546 1546 1546 1545 1545 1545 1545 1545 1545 1545 1545 1545 1545 1545 1545 1544 1544 1544 1544 1544 1544 1543 1543 1543 1543 1543 1543 1543 1543 1543
1565 1565 1565 1565 1565 1565 1565 1564 1564 1563 1563 1563 1562 1562 1561 1561 1561 1561 1561 1561 1560 1560 1560 1560 1559 1559 1559 1558 1558 1557 1556 1556 1556 1555 1555 1555 1554 1553 1552 1551 1550 1550 1549 1549 1548 1548 1548 1548 1548 1547 1547 1547 1547 1547 1547 1547 1547 1547 1547 1547 1547 1547 1546 1546 1546 1546 1546 1546 1546 1545 1545 1545 1545 1545 1545 1545 1545 1544 1544 1544 1544 1544 1544 1544 1544 1544 1543 1543 1543 1543 1543 1543 1543 1542 1542 1542 1542 1542 1542 1542 1542 1542 1541
1564 1564 1564 1564 1564 1563 1563 1563 1562 1562 1561 1561 1561 1561 1561 1561 1561 1560 1560 1560 1560 1559 1559 1558 1558 1558 1558 1557 1557 1556 1556 1555 1555 1554 1554 1553 1553 1552 1551 1551 1550 1550 1549 1548 1547 1546 1546 1546 1546 1546 1545 1545 1545 1545 1545 1545 1545 1545 1545 1545 1545 1545 1545 1545 1545 1545 1545 1545 1545 1545 1544 1544 1544 1544 1544 1543 1543 1543 1543 1543 1543 1543 1543 1542 1542 1542 1542 1542 1542 1542 1542 1541 1541 1541 1541 1541 1541 1541 1540 1540 1540 1540 1540
1564 1563 1563 1563 1563 1562 1562 1562 1561 1560 1560 1560 1560 1560 1560 1560 1560 1559 1559 1559 1558 1558 1557 1557 1556 1556 1556 1556 1555 1555 1555 1554 1553 1553 1552 1552 1551 1550 1550 1550 1550 1549 1548 1548 1546 1545 1545 1544 1544 1544 1544 1544 1543 1543 1543 1543 1543 1543 1543 1544 1544 1544 1544 1544 1543 1543 1543 1543 1543 1543 1543 1543 1543 1542 1542 1542 1542 1542 1542 1542 1541 1541 1541 1541 1541 1541 1541 1540 1540 1540 1540 1540 1540 1540 1540 1540 1539 1539 1539 1539 1539 1539 1539
1563 1563 1563 1562 1562 1562 1562 1561 1560 1560 1559 1559 1559 1558 1558 1558 1558 1558 1558 1557 1557 1557 1556 1556 1555 1555 1555 1554 1554 1553 1553 1552 1552 1551 1551 1550 1550 1549 1549 1548 1548 1548 1547 1546 1546 1545 1544 1543 1543 1542 1542 1542 1541 1541 1541 1541 1541 1541 1541 1541 1542 1542 1542 1542 1541 1541 1541 1542 1542 1541 1541 1541 1541 1541 1541 1541 1540 1540 1540 1540 1540 1540 1540 1540 1540 1540 1539 1539 1539 1539 1539 1539 1539 1539 1538 1538 1538 1538 1538 1538 1538 1538 1538
1562 1562 1562 1561 1561 1561 1560 1560 1560 1559 1558 1558 1558 1557 1557 1557 1557 1556 1556 1556 1556 1556 1555 1555 1554 1553 1553 1552 1552 1551 1551 1550 1550 1550 1549 1549 1548 1547 1547 1546 1546 1546 1546 1545 1545 1544 1544 1543 1542 1541 1541 1541 1540 1540 1539 1539 1539 1539 1539 1539 1540 1540 1540 1540 1540 1540 1540 1540 1540 1540 1540 1540 1540 1539 1539 1539 1539 1539 1539 1539 1539 1539 1538 1538 1538 1538 1538 1538 1538 1538 1538 1537 1537 1537 1537 1537 1537 1537 1536 1536 1536 1536 1536
1561 1561 1561 1560 1560 1560 1560 1559 1559 1558 1557 1557 1556 1556 1556 1556 1555 1555 1555 1555 1555 1554 1554 1554 1553 1552 1552 1551 1550 1550 1549 1549 1548 1548 1548 1547 1546 1546 1545 1545 1545 1544 1544 1544 1543 1543 1542 1542 1541 1541 1540 1540 1539 1539 1538 1538 1537 1537 1537 1537 1538 1538 1538 1538 1538 1538 1538 1537 1537 1538 1538 1538 1538 1538 1537 1537 1537 1537 1537 1537 1537 1537 1537 1537 1536 1536 1536 1536 1536 1536 1536 1536 1536 1536 1535 1535 1535 1535 1535 1535 1535 1535 1535
1560 1560 1560 1560 1559 1559 1559 1558 1557 1557 1557 1556 1555 1555 1555 1555 1554 1554 1554 1553 1553 1553 1553 1553 1552 1552 1551 1550 1549 1549 1548 1547 1546 1546 1545 1545 1545 1545 1544 1543 1543 1543 1542 1542 1541 1541 1540 1540 1540 1540 1539 1539 1538 1538 1537 1536 1536 1535 1535 1535 1536 1536 1536 1537 1537 1536 1536 1536 1536 1536 1536 1536 1536 1536 1536 1536 1536 1536 1535 1535 1535 1535 1535 1535 1535 1535 1535 1535 1535 1535 1534 1534 1534 1534 1534 1534 1534 1534 1534 1534 1534 1534 1534
1559 1559 1558 1558 1558 1558 1557 1557 1556 1556 1555 1555 1555 1554 1553 1553 1553 1553 1553 1552 1552 1551 1551 1551 1551 1550 1550 1549 1548 1547 1547 1546 1545 1544 1544 1543 1543 1543 1542 1542 1541 1541 1540 1540 1540 1539 1538 1538 1538 1538 1537 1537 1537 1536 1536 1535 1535 1534 1534 1534 1534 1534 1535 1535 1535 1535 1535 1535 1535 1534 1534 1534 1534 1534 1534 1534 1534 1534 1534 1534 1534 1534 1534 1533 1533 1533 1533 1533 1533 1533 1533 1533 1532 1532 1532 1532 1532 1532 1532 1532 1532 1532 1532
1558 1557 1557 1557 1556 1556 1556 1555 1555 1555 1554 1554 1553 1553 1552 1552 1551 1551 1551 1551 1550 1550 1550 1550 1549 1549 1548 1548 1547 1546 1545 1545 1544 1543 1542 1541 1541 1541 1540 1540 1540 1540 1539 1539 1538 1537 1536 1536 1535 1535 1535 1535 1535 1535 1534 1533 1533 1532 1532 1532 1532 1532 1533 1533 1534 1534 1534 1534 1533 1533 1533 1533 1533 1533 1533 1533 1533 1532 1532 1532 1532 1532 1532 1532 1532 1531 1531 1531 1531 1531 1531 1531 1531 1531 1531 1530 1530 1530 1530 1530 1530 1530 1530
1557 1557 1556 1556 1555 1555 1555 1555 1554 1554 1553 1553 1552 1551 1551 1550 1550 1550 1550 1550 1549 1549 1548 1548 1547 1547 1546 1546 1545 1544 1544 1543 1542 1541 1540 1540 1539 1539 1539 1538 1538 1538 1537 1537 1536 1536 1535 1535 1534 1533 1533 1533 1533 1533 1532 1531 1531 1530 1530 1530 1530 1530 1530 1530 1531 1531 1532 1532 1532 1532 1531 1531 1531 1531 1531 1531 1531 1530 1530 1530 1530 1530 1530 1530 1530 1530 1530 1530 1530 1529 1529 1529 1529 1529 1529 1529 1529 1529 1529 1529 1529 1529 1529
1555 1555 1555 1555 1555 1554 1554 1553 1553 1553 1552 1552 1551 1550 1550 1550 1549 1548 1548 1548 1547 1547 1546 1546 1545 1545 1544 1544 1543 1542 1541 1541 1540 1540 1539 1538 1538 1537 1537 1536 1536 1535 1535 1535 1535 1534 1534 1533 1532 1532 1531 1531 1531 1530 1530 1530 1529 1528 1528 1528 1528 1528 1528 1528 1529 1529 1530 1530 1530 1530 1530 1530 1529 1529 1529 1529 1529 1529 1528 1528 1528 1528 1528 1528 1528 1528 1528 1528 1528 1527 1527 1527 1527 1527 1527 1527 1527 1527 1527 1527 1527 1527 1527
1554 1554 1554 1554 1554 1553 1553 1552 1552 1551 1551 1550 1550 1550 1549 1549 1548 1547 1546 1545 1545 1545 1545 1544 1544 1543 1542 1542 1541 1540 1540 1539 1539 1538 1537 1537 1536 1536 1535 1535 1534 1534 1533 1533 1533 1532 1532 1531 1531 1530 1530 1530 1529 1529 1529 1528 1527 1527 1526 1526 1526 1526 1526 1526 1526 1527 1527 1527 1528 1528 1528 1528 1528 1527 1527 1527 1527 1526 1526 1526 1526 1526 1526 1526 1525 1525 1525 1525 1525 1525 1525 1525 1525 1525 1525 1525 1525 1525 1525 1525 1525 1525 1525
1553 1553 1553 1552 1552 1552 1552 1551 1551 1550 1550 1549 1549 1549 1548 1547 1546 1545 1544 1544 1544 1543 1543 1542 1542 1541 1541 1540 1539 1538 1538 1537 1537 1536 1535 1535 1535 1534 1534 1533 1532 1532 1531 1531 1530 1530 1530 1530 1529 1529 1528 1528 1528 1527 1527 1526 1526 1525 1525 1524 1524 1524 1524 1524 1524 1524 1524 1525 1525 1525 1525 1525 1525 1525 1525 1525 1525 1524 1524 1524 1524 1523 1523 1523 1523 1523 1523 1523 1523 1523 1523 1523 1523 1523 1523 1523 1523 1523 1523 1523 1523 1523 1523
1552 1552 1551 1551 1550 1550 1550 1550 1549 1549 1548 1548 1548 1547 1547 1546 1545 1544 1543 1542 1542 1542 1541 1540 1540 1540 1539 1538 1538 1537 1536 1536 1535 1535 1534 1534 1533 1533 1532 1532 1531 1530 1530 1529 1528 1528 1527 1527 1527 1527 1526 1526 1526 1525 1525 1525 1524 1524 1523 1523 1522 1521 1521 1521 1521 1521 1521 1521 1522 1522 1522 1523 1523 1523 1523 1523 1522 1522 1522 1521 1521 1521 1521 1520 1520 1520 1520 1520 1520 1520 1520 1520 1520 1520 1520 1520 1520 1520 1520 1520 1520 1520 1520
1551 1550 1550 1549 1549 1549 1548 1548 1548 1547 1547 1547 1546 1545 1545 1545 1543 1542 1541 1541 1540 1540 1540 1539 1538 1538 1537 1537 1536 1535 1535 1535 1534 1533 1533 1532 1531 1531 1530 1530 1530 1529 1528 1527 1527 1526 1525 1525 1525 1525 1524 1524 1523 1523 1523 1522 1522 1522 1521 1520 1520 1519 1518 1518 1518 1518 1518 1518 1518 1518 1519 1519 1519 1520 1520 1520 1520 1519 1519 1519 1518 1518 1518 1518 1518 1517 1517 1517 1517 1517 1517 1517 1517 1517 1517 1517 1517 1517 1517 1517 1518 1518 1518
1549 1549 1548 1548 1547 1547 1546 1546 1546 1546 1546 1545 1545 1544 1544 1543 1542 1541 1540 1540 1539 1539 1538 1538 1537 1536 1535 1535 1535 1534 1533 1533 1532 1532 1531 1530 1530 1529 1529 1528 1527 1527 1526 1525 1525 1524 1523 1523 1523 1522 1522 1521 1521 1520 1520 1520 1519 1519 1519 1518 1517 1516 1515 1515 1515 1515 1514 1514 1514 1514 1515 1515 1515 1515 1515 1516 1516 1516 1515 1515 1515 1515 1515 1515 1515 1515 1514 1514 1514 1514 1514 1514 1514 1514 1514 1514 1514 1514 1515 1515 1515 1515 1515
1548 1548 1547 1546 1546 1545 1545 1545 1545 1545 1544 1544 1543 1543 1542 1541 1540 1540 1539 1538 1538 1537 1536 1536 1535 1535 1534 1534 1533 1533 1532 1531 1531 1530 1530 1529 1528 1528 1527 1526 1525 1524 1524 1523 1522 1522 1521 1520 1520 1520 1520 1519 1519 1518 1517 1517 1517 1516 1516 1515 1515 1514 1513 1513 1512 1511 1511 1510 1510 1510 1510 1511 1511 1511 1511 1511 1511 1512 1512 1512 1511 1511 1511 1511 1511 1511 1511 1511 1511 1511 1511 1511 1511 1511 1511 1511 1511 1511 1511 1512 1512 1512 1512
1547 1546 1546 1545 1545 1544 1544 1544 1544 1543 1543 1542 1542 1541 1540 1540 1539 1538 1537 1537 1536 1535 1535 1534 1534 1533 1533 1532 1531 1531 1530 1530 1529 1528 1528 1527 1527 1526 1525 1525 1524 1522 1521 1521 1520 1519 1518 1518 1518 1517 1517 1517 1516 1515 1515 1515 1514 1514 1513 1512 1512 1511 1511 1510 1510 1509 1508 1508 1507 1507 1507 1507 1507 1507 1507 1507 1507 1507 1507 1507 1508 1508 1508 1508 1508 1508 1508 1508 1508 1508 1508 1508 1508 1508 1508 1508 1508 1508 1509 1509 1509 1509 1509
1545 1545 1545 1544 1544 1543 1543 1543 1542 1542 1541 1540 1540 1540 1539 1538 1537 1536 1536 1535 1535 1534 1533 1533 1532 1532 1531 1530 1530 1529 1528 1528 1527 1526 1526 1525 1525 1524 1524 1523 1522 1521 1520 1519 1518 1517 1516 1515 1515 1515 1515 1514 1513 1513 1512 1512 1511 1511 1510 1510 1509 1508 1508 1508 1507 1507 1506 1506 1505 1505 1504 1504 1504 1504 1504 1504 1504 1503 1503 1504 1504 1504 1504 1504 1504 1504 1504 1504 1504 1504 1504 1504 1504 1505 1505 1505 1505 1505 1505 1506 1506 1506 1506
1544 1544 1543 1543 1542 1542 1542 1541 1541 1540 1540 1539 1539 1538 1537 1536 1536 1535 1534 1534 1533 1532 1531 1531 1530 1530 1529 1529 1528 1527 1527 1526 1525 1525 1524 1523 1523 1522 1521 1520 1520 1519 1518 1517 1516 1515 1514 1513 1513 1512 1512 1511 1510 1510 1510 1509 1509 1508 1508 1507 1506 1506 1505 1505 1505 1504 1504 1504 1503 1502 1502 1501 1501 1501 1501 1500 1500 1500 1500 1500 1500 1500 1500 1500 1500 1500 1500 1500 1500 1500 1500 1500 1501 1501 1501 1501 1502 1502 1502 1503 1503 1503 1503
1543 1542 1542 1541 1541 1541 1540 1540 1540 1539 1538 1538 1537 1536 1535 1535 1534 1534 1533 1532 1531 1530 1530 1529 1528 1528 1527 1527 1526 1526 1525 1525 1524 1523 1522 1521 1520 1520 1519 1518 1517 1517 1516 1515 1514 1513 1512 1511 1511 1510 1509 1509 1508 1507 1507 1506 1506 1506 1505 1504 1504 1503 1503 1503 1503 1502 1502 1501 1501 1500 1500 1500 1499 1499 1498 1498 1498 1497 1497 1497 1497 1497 1497 1497 1497 1497 1497 1497 1497 1497 1497 1497 1497 1497 1498 1498 1498 1498 1499 1499 1500 1500 1500
1542 1542 1541 1540 1540 1540 1539 1539 1538 1538 1537 1536 1535 1535 1534 1533 1533 1532 1531 1531 1530 1529 1528 1528 1527 1526 1525 1525 1525 1524 1523 1523 1522 1521 1520 1520 1519 1518 1517 1516 1515 1515 1514 1513 1512 1511 1511 1510 1509 1508 1507 1506 1506 1505 1505 1504 1504 1503 1503 1502 1502 1501 1501 1501 1501 1500 1500 1500 1499 1499 1498 1498 1497 1497 1496 1496 1495 1495 1495 1495 1495 1495 1495 1495 1495 1495 1494 1494 1494 1494 1494 1494 1494 1494 1494 1494 1495 1495 1495 1495 1496 1496 1497
1541 1541 1540 1540 1539 1539 1538 1538 1537 1536 1535 1535 1534 1533 1532 1532 1531 1530 1530 1529 1529 1528 1527 1526 1525 1525 1524 1523 1522 1522 1521 1521 1520 1520 1519 1517 1516 1515 1515 1514 1513 1512 1511 1510 1510 1509 1509 1508 1507 1506 1505 1505 1504 1503 1502 1502 1501 1501 1500 1500 1500 1500 1500 1500 1499 1499 1499 1498 1498 1497 1497 1497 1496 1495 1495 1494 1494 1493 1493 1493 1493 1493 1492 1492 1492 1492 1492 1491 1491 1491 1491 1491 1491 1491 1491 1491 1491 1491 1492 1492 1493 1493 1494
1541 1540 1539 1539 1538 1537 1537 1536 1535 1535 1534 1533 1533 1532 1531 1530 1530 1529 1529 1528 1527 1526 1526 1525 1524 1523 1522 1521 1521 1520 1520 1519 1519 1518 1517 1515 1514 1513 1512 1511 1510 1509 1509 1508 1507 1506 1506 1505 1505 1504 1503 1503 1502 1501 1500 1500 1499 1499 1499 1499 1498 1498 1498 1498 1498 1498 1497 1497 1496 1496 1496 1495 1495 1494 1493 1493 1492 1491 1491 1491 1490 1490 1490 1490 1490 1490 1490 1489 1489 1489 1489 1489 1489 1489 1489 1488 1488 1489 1489 1489 1489 1490 1490
1540 1539 1538 1538 1537 1536 1536 1535 1534 1534 1533 1532 1531 1530 1530 1529 1528 1528 1527 1527 1526 1525 1524 1524 1523 1522 1521 1520 1519 1519 1518 1518 1517 1516 1515 1514 1513 1511 1510 1510 1509 1508 1506 1505 1505 1504 1504 1503 1502 1501 1501 1500 1500 1499 1498 1498 1497 1497 1497 1497 1497 1497 1497 1496 1496 1496 1496 1495 1495 1495 1494 1494 1493 1493 1492 1491 1490 1490 1489 1489 1488 1488 1488 1488 1488 1487 1487 1487 1487 1487 1487 1487 1486 1486 1486 1486 1486 1486 1486 1486 1486 1486 1486
1539 1538 1538 1537 1536 1535 1535 1534 1533 1532 1531 1530 1530 1529 1528 1528 1527 1526 1526 1525 1525 1524 1523 1522 1521 1520 1520 1519 1518 1517 1517 1517 1516 1515 1515 1513 1512 1511 1510 1509 1508 1507 1506 1505 1504 1503 1502 1501 1500 1499 1499 1498 1498 1497 1496 1496 1496 1495 1495 1495 1495 1495 1495 1495 1494 1494 1494 1494 1493 1493 1493 1492 1491 1491 1490 1490 1489 1488 1488 1487 1486 1486 1485 1485 1485 1485 1485 1485 1485 1485 1485 1485 1484 1484 1484 1483 1483 1483 1483 1483 1483 1483 1483
1538 1538 1537 1536 1535 1534 1533 1533 1532 1531 1530 1529 1528 1528 1527 1526 1525 1525 1524 1524 1523 1523 1522 1521 1520 1519 1518 1517 1516 1516 1516 1515 1515 1515 1514 1512 1511 1511 1510 1508 1506 1505 1504 1503 1503 1502 1500 1499 1498 1497 1497 1497 1496 1496 1495 1495 1494 1494 1494 1494 1493 1493 1493 1493 1492 1492 1491 1491 1491 1491 1490 1490 1490 1489 1488 1488 1487 1486 1486 1485 1485 1484 1483 1483 1483 1482 1482 1482 1482 1482 1482 1482 1482 1482 1481 1481 1481 1481 1480 1480 1480 1480 1480
1537 1536 1536 1535 1534 1533 1532 1531 1530 1530 1529 1528 1527 1526 1525 1525 1524 1523 1523 1522 1522 1521 1521 1520 1519 1518 1517 1516 1515 1514 1514 1514 1513 1513 1513 1511 1510 1510 1509 1508 1506 1505 1504 1503 1502 1501 1501 1499 1497 1496 1496 1495 1495 1495 1494 1493 1493 1492 1492 1491 1491 1491 1491 1491 1490 1490 1489 1488 1488 1488 1488 1488 1487 1487 1486 1486 1485 1485 1484 1483 1483 1482 1481 1481 1480 1480 1480 1479 1479 1480 1480 1480 1479 1479 1479 1479 1479 1478 1478 1478 1478 1478 1478
1536 1535 1535 1534 1533 1532 1531 1530 1529 1529 1528 1527 1526 1525 1524 1524 1523 1522 1521 1521 1520 1520 1519 1519 1518 1517 1516 1515 1514 1513 1512 1512 1511 1511 1510 1510 1510 1509 1508 1508 1507 1505 1504 1503 1501 1499 1500 1500 1498 1495 1495 1495 1495 1494 1493 1492 1491 1490 1490 1489 1489 1489 1489 1488 1488 1487 1487 1486 1485 1485 1485 1485 1485 1485 1484 1484 1483 1483 1482 1481 1481 1480 1479 1479 1478 1478 1477 1477 1477 1477 1477 1477 1477 1477 1476 1476 1476 1476 1476 1476 1475 1475 1475
1535 1535 1534 1533 1532 1530 1530 1529 1528 1527 1526 1525 1525 1524 1523 1522 1522 1521 1520 1520 1519 1518 1518 1517 1516 1516 1515 1514 1513 1512 1511 1511 1510 1510 1509 1508 1509 1509 1508 1507 1506 1505 1505 1505 1503 1500 1498 1499 1500 1498 1495 1494 1493 1492 1491 1491 1490 1489 1488 1487 1487 1486 1486 1486 1485 1485 1484 1484 1483 1483 1482 1482 1482 1482 1482 1481 1481 1480 1480 1480 1479 1478 1477 1477 1476 1475 1475 1475 1475 1474 1474 1474 1474 1474 1474 1474 1474 1474 1474 1473 1473 1473 1472
1534 1534 1533 1532 1530 1530 1529 1528 1527 1526 1525 1524 1523 1522 1522 1521 1521 1520 1520 1519 1518 1518 1517 1515 1515 1514 1514 1513 1512 1511 1511 1510 1510 1509 1508 1507 1507 1507 1507 1506 1505 1505 1504 1504 1503 1501 1499 1498 1497 1496 1496 1495 1495 1493 1491 1490 1489 1488 1487 1486 1486 1485 1485 1484 1483 1482 1481 1481 1480 1480 1480 1479 1479 1479 1479 1478 1478 1478 1478 1477 1477 1476 1475 1475 1474 1473 1473 1473 1472 1472 1471 1471 1471 1471 1471 1471 1471 1471 1471 1471 1470 1470 1470
1533 1532 1531 1530 1530 1528 1527 1526 1525 1525 1524 1523 1522 1521 1520 1520 1519 1519 1518 1518 1517 1517 1516 1515 1514 1513 1512 1511 1510 1510 1510 1509 1509 1508 1507 1506 1505 1505 1505 1505 1505 1505 1504 1502 1501 1500 1499 1498 1496 1494 1493 1495 1495 1494 1493 1491 1489 1488 1486 1485 1485 1484 1483 1483 1482 1481 1480 1479 1478 1478 1477 1477 1476 1475 1475 1475 1475 1475 1475 1475 1474 1474 1473 1473 1472 1471 1471 1470 1470 1470 1469 1469 1469 1469 1469 1469 1469 1468 1468 1468 1468 1467 1467
1532 1531 1530 1529 1528 1527 1526 1525 1524 1523 1522 1521 1520 1520 1519 1518 1517 1517 1517 1516 1516 1515 1515 1514 1513 1512 1511 1510 1510 1509 1508 1507 1507 1507 1506 1505 1504 1503 1503 1503 1503 1503 1503 1502 1500 1498 1497 1497 1497 1495 1490 1491 1492 1492 1491 1490 1490 1488 1486 1485 1484 1483 1482 1481 1480 1480 1479 1478 1477 1476 1475 1475 1474 1473 1472 1472 1471 1471 1471 1471 1471 1471 1471 1470 1470 1469 1469 1468 1468 1467 1467 1466 1466 1466 1466 1466 1466 1466 1465 1465 1465 1465 1464
1530 1529 1528 1527 1526 1525 1525 1524 1523 1522 1521 1520 1519 1518 1517 1517 1516 1515 1515 1515 1514 1514 1513 1512 1511 1511 1510 1509 1509 1508 1507 1506 1505 1505 1505 1504 1503 1502 1501 1501 1501 1501 1501 1500 1499 1498 1496 1495 1495 1495 1490 1488 1488 1489 1490 1489 1488 1487 1486 1485 1483 1482 1481 1480 1479 1478 1477 1476 1475 1475 1474 1473 1472 1471 1470 1470 1469 1468 1468 1468 1468 1468 1468 1468 1467 1467 1466 1466 1466 1465 1465 1464 1464 1464 1464 1464 1463 1463 1463 1462 1462 1462 1461
1529 1528 1527 1526 1525 1524 1523 1522 1521 1520 1519 1518 1518 1517 1516 1515 1515 1514 1513 1513 1512 1512 1511 1510 1510 1509 1508 1508 1507 1506 1505 1504 1504 1504 1504 1503 1502 1500 1500 1499 1499 1498 1498 1498 1497 1497 1496 1495 1494 1493 1492 1489 1485 1485 1486 1487 1486 1485 1484 1483 1482 1480 1479 1478 1476 1475 1475 1474 1473 1473 1472 1471 1470 1470 1469 1468 1467 1466 1465 1465 1465 1465 1465 1465 1465 1464 1464 1464 1463 1463 1463 1462 1462 1462 1461 1461 1461 1460 1460 1460 1459 1459 1458
1527 1526 1525 1524 1523 1522 1521 1520 1519 1518 1517 1517 1516 1515 1514 1514 1513 1513 1512 1511 1510 1510 1509 1509 1508 1507 1507 1506 1505 1505 1504 1503 1502 1502 1502 1502 1500 1499 1499 1498 1497 1496 1496 1495 1495 1495 1494 1494 1493 1492 1491 1490 1486 1483 1481 1482 1484 1484 1482 1481 1480 1479 1478 1476 1474 1473 1472 1471 1471 1470 1470 1469 1468 1468 1467 1466 1465 1464 1464 1463 1462 1462 1462 1462 1461 1461 1461 1461 1460 1460 1460 1460 1460 1459 1459 1459 1458 1458 1457 1457 1456 1456 1455
1526 1525 1524 1522 1521 1520 1520 1519 1518 1517 1516 1515 1514 1513 1513 1512 1512 1511 1510 1510 1509 1508 1507 1507 1506 1505 1505 1504 1503 1503 1502 1501 1501 1500 1500 1500 1499 1498 1498 1497 1495 1495 1494 1493 1493 1492 1492 1491 1490 1490 1490 1489 1487 1484 1480 1478 1479 1480 1480 1480 1479 1478 1476 1475 1473 1472 1470 1469 1468 1467 1467 1466 1466 1465 1465 1464 1463 1462 1462 1461 1460 1460 1460 1459 1459 1458 1458 1458 1457 1457 1457 1457 1457 1457 1457 1456 1456 1455 1455 1454 1454 1453 1453